English version
lugares datos climáticos artículos

datos de Mairena del Aljarafe, Sevilla, España
Año Mes Dia Mostrar

  Fecha       hora        Temp.ext.    Hum.ext.  Dir.Viento   Vel.Viento  Presion al NM   T.int. Prec.hoy 

   22-07-2018    08:50      19.9º(-1.3)     89%         -         0.0 km/h    1012.3 hpa     28.7º    0.0 mm
   22-07-2018    08:45      19.8º(-1.1)     88%         -         0.0 km/h    1012.3 hpa     28.7º    0.0 mm
   22-07-2018    08:40      19.7º(-1.0)     88%         -         0.0 km/h    1012.4 hpa     28.7º    0.0 mm
   22-07-2018    08:35      19.5º(-0.9)     89%         -         0.0 km/h    1012.3 hpa     28.7º    0.0 mm
   22-07-2018    08:30      19.2º(-1.0)     88%         -         0.0 km/h    1012.3 hpa     28.7º    0.0 mm
   22-07-2018    08:25      19.1º(-1.0)     89%         -         0.0 km/h    1012.2 hpa     28.7º    0.0 mm
   22-07-2018    08:20      19.0º(-0.9)     89%         -         0.0 km/h    1012.3 hpa     28.7º    0.0 mm
   22-07-2018    08:15      18.8º(-0.9)     90%         -         0.0 km/h    1012.2 hpa     28.7º    0.0 mm
   22-07-2018    08:10      18.8º(-0.7)     90%         -         0.0 km/h    1012.1 hpa     28.7º    0.0 mm
   22-07-2018    08:05      18.8º(-0.5)     90%         -         0.0 km/h    1012.0 hpa     28.7º    0.0 mm
   22-07-2018    08:00      18.7º(-0.4)     91%         -         0.0 km/h    1011.9 hpa     28.7º    0.0 mm
   22-07-2018    07:55      18.6º(-0.3)     91%         -         0.0 km/h    1011.8 hpa     28.7º    0.0 mm
   22-07-2018    07:50      18.5º(-0.4)     91%         -         0.0 km/h    1011.7 hpa     28.7º    0.0 mm
   22-07-2018    07:45      18.4º(-0.4)     91%         -         0.0 km/h    1011.8 hpa     28.7º    0.0 mm
   22-07-2018    07:40      18.4º(-0.4)     91%         -         0.0 km/h    1011.8 hpa     28.7º    0.0 mm
   22-07-2018    07:35      18.4º(-0.3)     91%         -         0.0 km/h    1011.7 hpa     28.7º    0.0 mm
   22-07-2018    07:30      18.3º(-0.4)     91%         -         0.0 km/h    1011.7 hpa     28.7º    0.0 mm
   22-07-2018    07:25      18.3º(-0.5)     91%         -         0.0 km/h    1011.6 hpa     28.7º    0.0 mm
   22-07-2018    07:20      18.3º(-0.6)     90%         -         0.0 km/h    1011.6 hpa     28.7º    0.0 mm
   22-07-2018    07:15      18.3º(-0.8)     90%         -         0.0 km/h    1011.6 hpa     28.7º    0.0 mm
   22-07-2018    07:10      18.3º(-0.9)     90%         -         0.0 km/h    1011.6 hpa     28.7º    0.0 mm
   22-07-2018    07:05      18.4º(-0.9)     90%         -         0.0 km/h    1011.7 hpa     28.7º    0.0 mm
   22-07-2018    07:00      18.6º(-0.8)     90%         -         0.0 km/h    1011.7 hpa     28.7º    0.0 mm
   22-07-2018    06:55      18.7º(-0.8)     90%         -         0.0 km/h    1011.7 hpa     28.7º    0.0 mm
   22-07-2018    06:50      18.7º(-0.8)     90%         -         0.0 km/h    1011.7 hpa     28.8º    0.0 mm
   22-07-2018    06:45      18.8º(-0.7)     90%         -         0.0 km/h    1011.7 hpa     28.8º    0.0 mm
   22-07-2018    06:40      18.8º(-0.6)     90%         -         0.0 km/h    1011.7 hpa     28.8º    0.0 mm
   22-07-2018    06:35      18.9º(-0.5)     90%         -         0.0 km/h    1011.7 hpa     28.8º    0.0 mm
   22-07-2018    06:30      18.9º(-0.4)     90%         -         0.0 km/h    1011.7 hpa     28.9º    0.0 mm
   22-07-2018    06:25      18.9º(-0.4)     90%         -         0.0 km/h    1011.7 hpa     28.9º    0.0 mm
   22-07-2018    06:20      18.9º(-0.3)     90%         -         0.0 km/h    1011.7 hpa     28.9º    0.0 mm
   22-07-2018    06:15      18.9º(-0.2)     90%         -         0.0 km/h    1011.7 hpa     28.9º    0.0 mm
   22-07-2018    06:10      19.0º(-0.1)     90%         -         0.0 km/h    1011.7 hpa     28.9º    0.0 mm
   22-07-2018    06:05      19.1º(+0.2)     89%         -         0.0 km/h    1011.8 hpa     29.1º    0.0 mm
   22-07-2018    06:00      19.2º(+0.3)     89%         -         0.0 km/h    1011.9 hpa     29.1º    0.0 mm
   22-07-2018    05:55      19.1º(+0.3)     89%         -         0.0 km/h    1011.8 hpa     29.1º    0.0 mm
   22-07-2018    05:50      19.2º(+0.4)     89%         -         0.0 km/h    1011.9 hpa     29.1º    0.0 mm
   22-07-2018    05:45      19.2º(+0.4)     89%         -         0.0 km/h    1011.9 hpa     29.1º    0.0 mm
   22-07-2018    05:40      19.2º(+0.4)     89%         -         0.0 km/h    1011.9 hpa     29.1º    0.0 mm
   22-07-2018    05:35      19.3º(+0.5)     88%         -         0.0 km/h    1012.0 hpa     29.1º    0.0 mm
   22-07-2018    05:30      19.4º(+0.6)     88%         -         0.0 km/h    1011.9 hpa     29.2º    0.0 mm
   22-07-2018    05:25      19.4º(+0.5)     89%         -         0.0 km/h    1011.9 hpa     29.2º    0.0 mm
   22-07-2018    05:20      19.4º(+0.5)     88%         -         0.0 km/h    1011.9 hpa     29.2º    0.0 mm
   22-07-2018    05:15      19.4º(+0.4)     88%         -         0.0 km/h    1011.9 hpa     29.2º    0.0 mm
   22-07-2018    05:10      19.4º(+0.3)     88%         -         0.0 km/h    1011.9 hpa     29.2º    0.0 mm
   22-07-2018    05:05      19.4º(+0.2)     88%         -         0.0 km/h    1011.9 hpa     29.2º    0.0 mm
   22-07-2018    05:00      19.4º(+0.1)     89%         -         0.0 km/h    1011.8 hpa     29.3º    0.0 mm
   22-07-2018    04:55      19.4º(+0.1)     89%         -         0.0 km/h    1011.8 hpa     29.3º    0.0 mm
   22-07-2018    04:50      19.4º(+0.0)     89%         -         0.0 km/h    1011.8 hpa     29.3º    0.0 mm
   22-07-2018    04:45      19.3º(-0.1)     90%         -         0.0 km/h    1011.7 hpa     29.3º    0.0 mm
   22-07-2018    04:40      19.2º(-0.3)     90%         -         0.0 km/h    1011.7 hpa     29.3º    0.0 mm
   22-07-2018    04:35      19.1º(-0.6)     89%         -         0.0 km/h    1011.7 hpa     29.3º    0.0 mm
   22-07-2018    04:30      19.1º(-1.0)     89%         -         0.0 km/h    1011.7 hpa     29.3º    0.0 mm
   22-07-2018    04:25      19.1º(-1.5)     89%         -         0.0 km/h    1011.8 hpa     29.3º    0.0 mm
   22-07-2018    04:20      19.1º(-2.1)     89%         -         0.0 km/h    1011.8 hpa     29.3º    0.0 mm
   22-07-2018    04:15      19.1º(-2.6)     89%         -         0.0 km/h    1011.8 hpa     29.4º    0.0 mm
   22-07-2018    04:10      19.1º(-2.5)     89%         -         0.0 km/h    1011.8 hpa     29.4º    0.0 mm
   22-07-2018    04:05      19.1º(-2.9)     89%         -         0.0 km/h    1011.8 hpa     29.4º    0.0 mm
   22-07-2018    04:00      19.1º(-3.7)     89%         -         0.0 km/h    1011.8 hpa     29.4º    0.0 mm
   22-07-2018    03:55      19.1º(-4.2)     89%         -         0.0 km/h    1011.9 hpa     29.4º    0.0 mm
   22-07-2018    03:50      19.1º(-4.5)     89%         -         0.0 km/h    1012.0 hpa     29.4º    0.0 mm
   22-07-2018    03:45      19.0º(-4.6)     89%         -         0.0 km/h    1012.0 hpa     29.4º    0.0 mm
   22-07-2018    03:40      19.1º(-4.5)     89%      202 (S)      1.6 km/h    1012.1 hpa     29.4º    0.0 mm
   22-07-2018    03:35      19.1º(-4.5)     89%         -         0.0 km/h    1012.2 hpa     29.4º    0.0 mm
   22-07-2018    03:30      19.1º(-4.4)     88%      202 (S)      1.6 km/h    1012.2 hpa     29.4º    0.0 mm
   22-07-2018    03:25      19.1º(-4.2)     88%      202 (S)      3.2 km/h    1012.2 hpa     29.4º    0.0 mm
   22-07-2018    03:20      19.1º(-4.0)     88%      202 (S)      3.2 km/h    1012.3 hpa     29.4º    0.0 mm
   22-07-2018    03:15      19.2º(-3.7)     88%      202 (S)      3.2 km/h    1012.4 hpa     29.4º    0.0 mm
   22-07-2018    03:10      19.2º(-3.4)     88%      202 (S)      4.8 km/h    1012.5 hpa     29.4º    0.0 mm
   22-07-2018    03:05      19.2º(-3.1)     88%      202 (S)      3.2 km/h    1012.5 hpa     29.4º    0.0 mm
   22-07-2018    03:00      19.3º(-2.8)     88%      202 (S)      3.2 km/h    1012.5 hpa     29.4º    0.0 mm
   22-07-2018    02:55      19.3º(-2.7)     88%      202 (S)      3.2 km/h    1012.6 hpa     29.4º    0.0 mm
   22-07-2018    02:50      19.3º(-2.7)     88%      202 (S)      4.8 km/h    1012.5 hpa     29.4º    0.0 mm
   22-07-2018    02:45      19.4º(-2.7)     87%      225(SW)      4.8 km/h    1012.5 hpa     29.4º    0.0 mm
   22-07-2018    02:40      19.4º(-2.6)     87%      202 (S)      4.8 km/h    1012.5 hpa     29.4º    0.0 mm
   22-07-2018    02:35      19.4º(-2.6)     87%      225(SW)      4.8 km/h    1012.6 hpa     29.4º    0.0 mm
   22-07-2018    02:30      19.4º(-2.6)     87%      225(SW)      3.2 km/h    1012.6 hpa     29.4º    0.0 mm
   22-07-2018    02:25      19.5º(-2.5)     87%      225(SW)      4.8 km/h    1012.6 hpa     29.4º    0.0 mm
   22-07-2018    02:20      19.6º(-2.4)     88%      225(SW)      4.8 km/h    1012.7 hpa     29.4º    0.0 mm
   22-07-2018    02:15      19.7º(-2.3)     88%      202 (S)      4.8 km/h    1012.6 hpa     29.4º    0.0 mm
   22-07-2018    02:10      19.8º(-2.2)     87%      225(SW)      4.8 km/h    1012.5 hpa     29.4º    0.0 mm
   22-07-2018    02:05      19.9º(-2.0)     87%      202 (S)      4.8 km/h    1012.6 hpa     29.4º    0.0 mm
   22-07-2018    02:00      20.1º(-1.8)     87%      225(SW)      3.2 km/h    1012.5 hpa     29.4º    0.0 mm
   22-07-2018    01:55      20.1º(----)     86%      202 (S)      4.8 km/h    1012.5 hpa     29.4º    0.0 mm
   22-07-2018    01:50      20.2º(----)     86%      225(SW)      4.8 km/h    1012.6 hpa     29.4º    0.0 mm
   22-07-2018    01:45      20.2º(----)     85%      225(SW)      6.4 km/h    1012.5 hpa     29.4º    0.0 mm
   22-07-2018    01:40      20.2º(----)     85%      225(SW)      3.2 km/h    1012.7 hpa     29.4º    0.0 mm
   22-07-2018    01:35      20.3º(----)     84%      225(SW)      3.2 km/h    1012.7 hpa     29.4º    0.0 mm
   22-07-2018    01:30      20.3º(----)     83%      225(SW)      4.8 km/h    1012.7 hpa     29.4º    0.0 mm
   22-07-2018    01:25      20.4º(----)     82%      225(SW)      4.8 km/h    1012.7 hpa     29.4º    0.0 mm
   22-07-2018    01:20      20.4º(----)     81%      202 (S)      4.8 km/h    1012.8 hpa     29.4º    0.0 mm
   22-07-2018    01:15      20.4º(----)     81%      180 (S)      3.2 km/h    1012.7 hpa     29.4º    0.0 mm
   22-07-2018    01:10      20.5º(----)     80%      180 (S)      3.2 km/h    1012.8 hpa     29.4º    0.0 mm
   22-07-2018    01:05      20.6º(----)     79%      180 (S)      3.2 km/h    1012.8 hpa     29.4º    0.0 mm
   22-07-2018    01:00      20.8º(----)     78%      225(SW)      3.2 km/h    1012.8 hpa     29.4º    0.0 mm
   22-07-2018    00:55      20.9º(----)     77%      225(SW)      1.6 km/h    1012.8 hpa     29.4º    0.0 mm
   22-07-2018    00:50      21.1º(----)     76%      225(SW)      3.2 km/h    1012.8 hpa     29.4º    0.0 mm
   22-07-2018    00:45      21.3º(----)     73%      225(SW)      3.2 km/h    1012.9 hpa     29.4º    0.0 mm
   22-07-2018    00:40      21.4º(----)     72%      247(SW)      1.6 km/h    1012.9 hpa     29.4º    0.0 mm
   22-07-2018    00:35      21.6º(----)     71%      225(SW)      3.2 km/h    1012.8 hpa     29.5º    0.0 mm
   22-07-2018    00:30      21.8º(----)     69%      225(SW)      4.8 km/h    1012.8 hpa     29.5º    0.0 mm
   22-07-2018    00:25      21.9º(----)     67%      225(SW)      4.8 km/h    1012.8 hpa     29.5º    0.0 mm
   22-07-2018    00:20      22.2º(----)     66%      202 (S)      1.6 km/h    1012.7 hpa     29.5º    0.0 mm
   22-07-2018    00:15      22.4º(----)     66%      202 (S)      3.2 km/h    1012.7 hpa     29.5º    0.0 mm
   22-07-2018    00:10      22.7º(----)     65%      202 (S)      4.8 km/h    1012.8 hpa     29.5º    0.0 mm
   22-07-2018    00:05      22.9º(----)     64%      247(SW)      3.2 km/h    1012.7 hpa     29.5º    0.0 mm
   22-07-2018    00:00      23.0º(----)     64%      247(SW)      3.2 km/h    1012.6 hpa     29.5º    0.0 mm